Skip Page Navigation
NASA JPL Caltech
NASA Logo - Jet Propulsion Laboratory + View the NASA Portal
+ Center for Near-Earth Object Studies
JPL Home Earth Solar System Stars & Galaxies Technology
JPL Solar System Dynamics
BODIES ORBITS EPHEMERIDES TOOLS PHYSICAL DATA DISCOVERY FAQ SITE MAP
IMPORTANT: The SSD Announcement email list is now available. Major changes are coming in the near future, including possible hostname and/or URL changes. To be notified of such changes, subscribe to this email list.

Please visit this page for more details.


JPL Small-Body Database Browser
Search: [ help ]  
359016 (2008 UD288)
Classification: Main-belt Asteroid          SPK-ID: 2359016
Ephemeris | Orbit Diagram | Orbital Elements | Mission Design | Physical Parameters | Discovery Circumstances ]

[ hide orbit diagram ]

For accurate long-term ephemerides, please instead use our Horizons system.This orbit viewer was implemented using two-body methods, and hence should not be used for determining accurate long-term trajectories (over several years or decades) or planetary encounter circumstances.


[ revert to old Java-based viewer ]

Orbital Elements at Epoch 2459000.5 (2020-May-31.0) TDB
Reference: JPL 10 (heliocentric ecliptic J2000)
 Element Value Uncertainty (1-sigma)   Units 
e .1060718061085437 6.971e-08  
a 2.219737324310936 2.0819e-08 au
q 1.984285777234729 1.5609e-07 au
i 6.002732889863362 8.1267e-06 deg
node 64.35856764022003 7.2762e-05 deg
peri 79.07112734992683 8.3352e-05 deg
M 89.20621503958789 4.3314e-05 deg
tp 2458701.174707191270
(2019-Aug-05.67470719)
0.00014461 TDB
period 1207.955133656578
3.31
1.6994e-05
4.653e-08
d
yr
n .2980243139579621 4.1927e-09 deg/d
Q 2.455188871387143 2.3027e-08 au
  Orbit Determination Parameters
   # obs. used (total)      118  
   data-arc span      5172 days (14.16 yr)  
   first obs. used      2005-11-26  
   last obs. used      2020-01-24  
   planetary ephem.      DE431  
   SB-pert. ephem.      SB431-N16  
   condition code      0  
   norm. resid. RMS      .57805  
   source      ORB  
   producer      Otto Matic  
   solution date      2020-Feb-26 00:40:58  

Additional Information
 Earth MOID = 1.00719 au 
 Jupiter MOID = 2.5611 au 
 T_jup = 3.636 
[ show covariance matrix ]

Ephemeris | Orbit Diagram | Orbital Elements | Mission Design | Physical Parameters | Discovery Circumstances ]

Physical Parameter Table
Parameter Symbol Value Units Sigma Reference Notes
absolute magnitude H 17.8   n/a MPO413358  

359016 (2008 UD288)          Discovered 2008-Oct-28 by Mt. Lemmon Survey at Mount Lemmon
Reference: 20130327/Numbers.arcLast Updated: 2013-03-29
Ephemeris | Orbit Diagram | Orbital Elements | Mission Design | Physical Parameters | Discovery Circumstances ]
ABOUT SSD CREDITS/AWARDS PRIVACY/COPYRIGHT GLOSSARY LINKS
FirstGov 2020-Feb-27 18:01 UT
(server date/time)  
NASA Home Page
Site Manager:   Ryan S. Park
Webmaster  Alan B. Chamberlin